CAPE
0 0 12 4 0 0 8 0 0 0 0 0 0 0 14 32 336 242 1 0 0 0 0 116 263 191 60 57 110 241 158 18 6 2 0 0 0 0 1 21 43 65 34 32 31 20 10 5 0
0 31 0 0 0 1 0 0 0 0 0 0 0 0 5 10 32 4 1 2 0 0 0 0 143 275 143 23 121 171 130 22 10 8 2 1 0 1 5 2 10 15 17 15 21 8 6 8 16
0 0 0 0 0 0 3 0 0 0 0 0 0 0 6 36 1 1 0 1 0 0 0 0 180 365 224 115 102 134 101 11 8 1 2 1 0 0 0 1 1 1 0 0 21 16 12 3 5
0 0 0 0 0 2 0 0 0 0 0 0 0 0 0 3 3 16 0 2 0 4 17 63 372 392 307 193 106 70 3 0 0 0 0 0 0 0 0 3 18 4 0 0 3 33 31 4 0
0 0 0 0 0 0 0 0 0 0 0 0 0 1 4 72 2 0 0 0 0 2 0 51 162 276 333 194 198 62 30 4 0 0 0 0 0 0 0 0 4 7 0 0 0 0 7 4 0
0 0 0 0 0 0 0 0 0 0 0 0 0 13 30 25 0 0 0 0 0 0 0 0 0 0 28 128 44 37 42 36 23 15 0 0 0 0 0 0 0 0 0 0 0 0 0 0 0
0 0 0 0 0 0 0 0 0 0 0 0 0 0 42 77 0 6 4 1 5 0 0 0 0 0 0 0 58 48 28 26 33 30 26 2 0 0 0 0 0 0 0 0 0 0 0 0 0
0 0 0 0 4 0 0 0 0 0 0 0 0 4 38 154 28 25 12 7 3 0 0 0 0 0 0 0 0 0 0 0 7 10 6 0 0 0 0 0 0 0 0 0 0 0 0 0 0
0 0 0 0 0 3 0 0 0 0 0 0 0 0 29 159 111 52 10 4 26 6 3 1 5 3 2 1 0 0 0 0 0 0 0 0 0 2 0 0 0 0 0 0 0 0 0 0 0
0 0 0 0 0 5 0 0 0 0 0 0 0 8 201 156 131 66 24 3 19 14 11 12 3 3 6 6 0 0 5 0 3 3 0 0 4 6 8 0 0 0 0 0 0 0 0 0 1
0 0 0 0 0 0 0 0 0 0 0 0 0 44 205 126 115 67 34 12 0 12 3 2 6 6 4 3 4 10 7 13 11 13 8 10 14 5 4 3 0 0 0 0 0 1 0 1 3
0 0 0 0 0 0 0 0 0 0 0 0 0 45 194 172 114 83 56 49 46 32 9 4 0 3 2 3 0 0 0 0 0 0 0 0 0 2 9 7 7 4 0 2 6 6 6 9 9
0 0 0 0 0 0 0 0 0 0 0 0 0 112 184 177 117 88 114 95 87 74 33 0 0 0 0 0 0 0 0 0 0 0 0 0 0 1 3 2 4 12 10 8 5 0 3 2 0
0 0 0 0 0 0 0 0 0 0 0 0 0 83 127 126 114 79 74 96 100 85 58 20 48 10 0 0 0 0 0 0 0 0 0 0 0 0 0 0 11 3 1 2 6 5 14 14 7
0 0 0 0 0 0 0 0 0 0 0 0 0 10 64 87 94 70 36 29 51 78 83 76 80 55 31 46 39 0 0 0 0 0 0 0 0 0 0 2 1 0 0 0 1 0 13 16 13
0 0 0 0 0 0 0 0 0 0 0 12 26 1 29 32 51 49 46 43 45 62 84 77 66 79 72 40 40 29 0 0 0 0 0 0 0 0 0 0 6 1 3 2 0 0 0 7 13
4 0 0 0 0 0 0 12 0 0 0 0 33 27 20 14 25 37 21 10 31 56 75 78 82 73 71 60 32 24 0 0 0 0 0 0 0 0 0 0 0 16 26 26 22 1 7 14 14
1 2 0 0 0 0 0 0 0 0 0 0 3 36 37 16 32 39 32 8 0 12 51 67 92 87 78 65 81 56 33 0 0 0 0 0 0 0 0 0 0 0 25 70 62 43 32 17 0
0 0 0 0 0 0 0 0 0 0 0 0 0 0 15 15 11 17 14 6 36 26 28 23 19 39 5 0 0 0 0 0 0 0 0 0 0 0 0 0 0 0 0 39 64 32 26 0 0
14 1 5 0 0 0 0 0 0 0 0 0 0 0 0 0 0 0 0 5 18 37 27 20 11 0 0 0 0 0 0 0 0 0 0 0 0 0 0 0 0 0 0 17 34 0 2 0 0
7 5 0 0 0 0 0 0 0 0 0 0 0 0 0 0 0 0 0 0 0 0 0 0 0 0 0 0 0 0 0 0 0 0 0 0 0 0 0 0 0 0 0 4 3 0 0 0 0
9 0 2 0 0 0 0 0 0 0 0 0 0 0 0 0 0 0 0 0 0 0 0 0 0 0 0 0 0 0 0 0 0 0 0 0 0 0 0 0 0 0 0 0 0 0 0 0 0
0 0 0 0 0 0 0 0 0 0 0 0 0 0 0 0 0 0 0 0 0 0 0 0 0 0 0 0 0 0 0 0 0 0 0 0 0 0 0 0 0 0 0 0 0 0 0 0 0
0 0 1 0 0 0 0 0 0 0 0 0 0 0 0 0 0 0 0 0 0 0 0 0 0 0 0 0 0 0 0 0 0 0 0 0 0 0 0 0 0 0 0 0 0 0 0 0 0
0 0 1 1 0 0 0 0 0 0 0 0 0 0 0 0 0 0 0 0 0 0 0 0 0 0 0 0 0 0 0 0 0 0 0 0 0 0 0 0 0 0 0 0 0 0 0 0 0
0 0 0 0 0 0 0 0 0 0 0 0 0 0 0 0 0 0 0 0 0 0 0 0 0 0 0 0 0 0 0 0 0 0 0 0 0 0 0 0 0 0 0 0 0 0 0 0 0
0 0 0 0 0 0 0 0 0 0 0 0 0 0 0 0 0 0 0 0 0 0 0 0 0 0 0 0 0 0 0 0 0 0 0 0 0 0 0 0 0 0 0 0 0 0 0 0 0
0 0 0 0 0 0 0 0 0 0 0 0 0 0 0 0 0 0 0 0 0 0 0 0 0 0 0 0 0 0 0 0 0 0 0 0 0 0 0 0 0 0 0 0 0 0 0 0 0
0 0 0 0 0 0 0 0 0 0 0 0 0 0 0 0 0 0 0 0 0 0 0 0 0 0 0 0 0 0 0 0 0 0 0 0 0 0 0 0 0 0 0 0 0 0 0 0 0
0 0 0 0 0 0 0 0 0 0 0 0 0 0 0 0 0 0 0 0 0 0 0 0 0 0 0 0 0 0 0 0 0 0 0 0 0 0 0 0 0 0 0 0 0 0 0 0 0
CIN
-0 -0 -147 -38 -0 -0 -18 -0 -0 -0 -0 -0 -0 -6 -50 -123 -37 -41 -68 -0 -0 -0 -0 -25 -2 -25 -56 -53 -26 -7 -4 -0 -0 -0 -0 -0 -0 -0 -0 -0 -71 -128 -0 -0 -0 -0 -0 -0 -0
-0 -217 -0 -0 -0 -1 -0 -0 -0 -0 -0 -0 -0 -0 -11 -131 -121 -113 -1 -3 -0 -0 -0 -0 -35 -6 -36 -26 -42 -21 -26 -0 -0 -0 -0 -0 -0 -0 -0 -0 -0 -0 -0 -0 -0 -0 -0 -0 -0
-0 -0 -0 -0 -0 -10 -5 -0 -0 -0 -0 -0 -0 -0 -19 -64 -206 -58 -2 -1 -0 -0 -0 -0 -20 -0 -8 -53 -64 -34 -41 -0 -0 -0 -0 -0 -0 -0 -0 -0 -0 -1 -0 -0 -0 -0 -0 -0 -0
-0 -0 -0 -0 -0 -13 -0 -0 -0 -0 -0 -0 -0 -0 -2 -83 -132 -129 -0 -2 -0 -3 -125 -53 -1 -0 -1 -9 -41 -42 -0 -0 -0 -0 -0 -0 -0 -0 -0 -1 -0 -2 -0 -0 -0 -0 -0 -0 -0
-0 -0 -0 -0 -0 -0 -0 -0 -0 -0 -0 -0 -0 -8 -72 -43 -160 -0 -0 -0 -0 -10 -0 -37 -13 -2 -0 -6 -12 -51 -0 -0 -0 -0 -0 -0 -0 -0 -0 -0 -0 -0 -0 -0 -0 -0 -0 -0 -0
-0 -0 -0 -0 -0 -0 -0 -0 -0 -0 -0 -0 -0 -77 -64 -77 -0 -0 -0 -0 -0 -0 -0 -0 -0 -0 -14 -11 -16 -5 -6 -2 -3 -2 -0 -0 -0 -0 -0 -0 -0 -0 -0 -0 -0 -0 -0 -0 -0
-0 -0 -0 -0 -0 -0 -0 -0 -0 -0 -0 -0 -0 -0 -95 -67 -0 -129 -2 -7 -8 -0 -0 -0 -0 -0 -0 -0 -26 -44 -14 -11 -9 -7 -8 -4 -0 -0 -0 -0 -0 -0 -0 -0 -0 -0 -0 -0 -0
-0 -0 -0 -0 -9 -0 -0 -0 -0 -0 -0 -0 -0 -34 -112 -70 -121 -101 -39 -7 -14 -0 -0 -0 -0 -0 -0 -0 -0 -0 -0 -3 -16 -12 -11 -0 -0 -0 -0 -0 -0 -0 -0 -0 -0 -0 -0 -0 -0
-0 -0 -0 -0 -0 -22 -0 -0 -0 -0 -0 -0 -0 -0 -123 -95 -92 -103 -47 -3 -152 -119 -4 -4 -11 -2 -5 -7 -0 -0 -0 -0 -0 -0 -0 -0 -4 -38 -0 -0 -0 -0 -0 -0 -0 -0 -0 -0 -0
-0 -0 -0 -0 -0 -33 -0 -0 -0 -0 -0 -0 -0 -28 -121 -114 -94 -114 -144 -73 -164 -147 -111 -89 -8 -5 -14 -5 -0 -0 -19 -0 -24 -24 -2 -6 -23 -15 -13 -25 -0 -0 -0 -0 -0 -0 -0 -0 -45
-0 -0 -0 -0 -0 -0 -0 -0 -0 -0 -0 -0 -0 -41 -128 -130 -111 -122 -141 -162 -0 -123 -2 -6 -50 -47 -8 -8 -45 -19 -22 -15 -19 -21 -28 -32 -13 -26 -13 -32 -0 -0 -0 -0 -0 -6 -6 -28 -32
-0 -0 -0 -0 -0 -0 -0 -0 -0 -0 -0 -0 -0 -156 -134 -125 -125 -131 -122 -127 -121 -78 -27 -3 -1 -9 -11 -11 -0 -1 -2 -0 -0 -0 -0 -0 -1 -11 -16 -35 -36 -41 -31 -34 -17 -15 -15 -14 -12
-0 -0 -0 -0 -0 -0 -0 -0 -0 -0 -0 -0 -0 -144 -132 -128 -116 -114 -113 -92 -91 -70 -73 -0 -0 -0 -0 -0 -0 -0 -0 -0 -0 -0 -0 -0 -0 -15 -2 -6 -13 -19 -17 -17 -19 -9 -24 -28 -6
-0 -0 -0 -0 -0 -0 -0 -0 -0 -0 -0 -0 -4 -137 -136 -129 -115 -110 -107 -89 -94 -87 -83 -46 -64 -26 -0 -0 -0 -0 -0 -0 -0 -0 -0 -0 -0 -0 -0 -0 -16 -11 -1 -25 -25 -22 -24 -30 -50
-0 -0 -0 -0 -0 -0 -0 -0 -0 -0 -0 -0 -0 -142 -126 -127 -126 -135 -116 -134 -141 -111 -98 -98 -96 -92 -89 -78 -72 -0 -0 -0 -0 -0 -0 -0 -0 -0 -0 -28 -14 -0 -0 -0 -14 -2 -41 -41 -48
-0 -0 -0 -0 -0 -0 -0 -0 -0 -0 -0 -111 -92 -22 -120 -134 -130 -137 -140 -139 -148 -136 -122 -118 -125 -108 -95 -104 -95 -89 -0 -0 -0 -0 -0 -0 -0 -0 -0 -0 -25 -5 -31 -26 -0 -0 -6 -49 -45
-32 -0 -0 -0 -0 -0 -0 -54 -0 -0 -0 -0 -78 -86 -120 -129 -135 -127 -148 -84 -146 -138 -122 -114 -117 -112 -97 -85 -84 -75 -0 -0 -0 -0 -0 -0 -0 -0 -0 -0 -0 -23 -26 -29 -31 -2 -14 -22 -30
-4 -24 -0 -0 -0 -0 -0 -0 -0 -0 -0 -0 -22 -58 -86 -112 -129 -136 -141 -116 -0 -155 -131 -125 -129 -136 -123 -102 -78 -73 -69 -0 -0 -0 -0 -0 -0 -0 -0 -0 -0 -0 -12 -10 -14 -16 -29 -27 -0
-0 -0 -0 -8 -0 -0 -0 -0 -0 -0 -0 -0 -0 -0 -66 -111 -113 -152 -149 -160 -162 -179 -153 -143 -112 -123 -32 -0 -0 -0 -0 -0 -0 -0 -0 -0 -0 -0 -0 -0 -0 -0 -0 -17 -20 -38 -31 -0 -0
-1 -0 -4 -0 -0 -0 -0 -0 -0 -0 -0 -0 -0 -0 -0 -0 -0 -0 -0 -125 -184 -177 -184 -168 -122 -0 -0 -0 -0 -0 -0 -0 -0 -0 -0 -0 -0 -0 -0 -0 -0 -0 -0 -19 -20 -2 -11 -0 -0
-2 -0 -0 -0 -0 -0 -0 -0 -0 -0 -0 -0 -0 -0 -0 -0 -0 -0 -0 -0 -0 -0 -0 -0 -0 -0 -0 -0 -0 -0 -0 -0 -0 -0 -0 -0 -0 -0 -0 -0 -0 -0 -0 -9 -10 -0 -0 -0 -0
-0 -0 -1 -0 -0 -0 -0 -0 -0 -0 -0 -0 -0 -0 -0 -0 -0 -0 -0 -0 -0 -0 -0 -0 -0 -0 -0 -0 -0 -0 -0 -0 -0 -0 -0 -0 -0 -0 -0 -0 -0 -0 -0 -0 -0 -0 -0 -0 -0
-0 -0 -0 -0 -0 -0 -0 -0 -0 -0 -0 -0 -0 -0 -0 -0 -0 -0 -0 -0 -0 -0 -0 -0 -0 -0 -0 -0 -0 -0 -0 -0 -0 -0 -0 -0 -0 -0 -0 -0 -0 -0 -0 -0 -0 -0 -0 -0 -0
-0 -0 -7 -0 -0 -0 -0 -0 -0 -0 -0 -0 -0 -0 -0 -0 -0 -0 -0 -0 -0 -0 -0 -0 -0 -0 -0 -0 -0 -0 -0 -0 -0 -0 -0 -0 -0 -0 -0 -0 -0 -0 -0 -0 -0 -0 -0 -0 -0
-0 -0 -0 -0 -0 -0 -0 -0 -0 -0 -0 -0 -0 -0 -0 -0 -0 -0 -0 -0 -0 -0 -0 -0 -0 -0 -0 -0 -0 -0 -0 -0 -0 -0 -0 -0 -0 -0 -0 -0 -0 -0 -0 -0 -0 -0 -0 -0 -0
-0 -0 -0 -0 -0 -0 -0 -0 -0 -0 -0 -0 -0 -0 -0 -0 -0 -0 -0 -0 -0 -0 -0 -0 -0 -0 -0 -0 -0 -0 -0 -0 -0 -0 -0 -0 -0 -0 -0 -0 -0 -0 -0 -0 -0 -0 -0 -0 -0
-0 -0 -0 -0 -0 -0 -0 -0 -0 -0 -0 -0 -0 -0 -0 -0 -0 -0 -0 -0 -0 -0 -0 -0 -0 -0 -0 -0 -0 -0 -0 -0 -0 -0 -0 -0 -0 -0 -0 -0 -0 -0 -0 -0 -0 -0 -0 -0 -0
-0 -0 -0 -0 -0 -0 -0 -0 -0 -0 -0 -0 -0 -0 -0 -0 -0 -0 -0 -0 -0 -0 -0 -0 -0 -0 -0 -0 -0 -0 -0 -0 -0 -0 -0 -0 -0 -0 -0 -0 -0 -0 -0 -0 -0 -0 -0 -0 -0
-0 -0 -0 -0 -0 -0 -0 -0 -0 -0 -0 -0 -0 -0 -0 -0 -0 -0 -0 -0 -0 -0 -0 -0 -0 -0 -0 -0 -0 -0 -0 -0 -0 -0 -0 -0 -0 -0 -0 -0 -0 -0 -0 -0 -0 -0 -0 -0 -0
-0 -0 -0 -0 -0 -0 -0 -0 -0 -0 -0 -0 -0 -0 -0 -0 -0 -0 -0 -0 -0 -0 -0 -0 -0 -0 -0 -0 -0 -0 -0 -0 -0 -0 -0 -0 -0 -0 -0 -0 -0 -0 -0 -0 -0 -0 -0 -0 -0
Wind_Speed
7 5 5 2 3 5 6 4 9 8 7 3 10 9 12 10 7 7 9 15 17 14 13 10 11 12 11 11 9 11 12 12 11 12 12 11 12 12 11 14 14 15 16 15 15 14 12 12 12
6 7 3 4 4 7 3 10 8 5 10 6 7 1 5 6 6 11 7 14 16 14 12 11 11 12 11 10 9 11 11 11 11 10 10 9 10 11 12 11 13 13 13 14 12 11 10 10 10
5 7 2 4 5 1 2 7 9 11 8 6 4 3 5 5 11 12 11 11 16 12 12 12 11 12 12 10 10 10 9 10 10 8 9 9 10 9 9 10 10 11 13 12 10 9 9 10 9
3 3 5 4 10 5 7 6 15 8 2 1 7 9 6 2 13 9 14 12 13 11 14 11 11 11 11 10 10 10 9 10 10 9 9 8 8 7 7 10 10 11 11 9 8 9 9 8 8
2 4 4 6 12 6 4 13 11 9 7 4 4 7 9 10 15 15 13 12 11 13 12 10 11 10 10 7 11 12 10 9 9 9 9 8 7 6 6 6 9 9 9 8 8 7 7 6 5
3 3 4 9 10 8 7 9 8 7 6 6 4 9 7 8 13 11 11 12 12 15 11 10 9 10 9 8 8 7 10 9 9 9 8 8 7 5 5 4 5 6 6 5 5 5 3 3 3
3 5 7 9 6 6 6 9 7 7 8 5 7 10 8 9 12 9 9 12 12 15 12 9 8 7 8 7 6 6 5 7 7 7 8 7 6 4 4 3 3 2 3 3 3 3 3 2 2
3 4 10 11 5 5 8 8 6 9 5 6 4 6 8 9 15 9 8 11 12 10 12 10 8 7 6 5 7 6 6 5 5 6 6 5 5 6 5 4 4 4 3 3 2 1 1 1 1
2 4 6 14 7 6 11 8 1 4 7 4 5 6 18 18 14 9 7 7 12 10 9 9 10 8 8 8 6 5 5 5 5 5 5 5 4 6 7 7 7 5 3 3 3 3 4 5 7
3 4 7 8 7 8 13 10 8 5 8 6 7 5 17 15 11 10 8 7 8 9 11 10 9 6 8 6 8 6 7 5 5 5 6 5 5 3 3 5 7 6 5 6 7 7 8 6 4
3 4 3 7 6 6 11 8 7 6 6 8 11 9 15 13 10 10 9 8 7 8 6 8 9 7 7 5 6 4 4 4 4 6 6 5 4 4 3 3 3 4 6 4 7 6 4 6 4
6 0 5 4 6 6 11 8 7 5 1 8 13 12 13 12 10 10 8 8 9 8 10 7 9 7 8 4 4 5 5 4 4 6 6 4 2 4 4 3 5 4 3 5 4 3 4 3 2
5 2 0 1 5 7 8 5 5 5 6 8 17 14 13 11 9 8 8 7 6 7 8 7 6 6 6 5 5 4 4 4 4 4 6 5 4 4 3 3 2 4 4 4 4 4 4 3 4
9 11 2 3 2 5 5 5 2 8 8 6 13 11 11 11 10 8 9 8 9 8 8 9 7 7 6 5 5 4 4 5 5 4 5 7 4 4 4 3 4 4 4 3 3 4 4 4 5
9 8 5 5 6 2 3 2 5 8 8 8 9 10 10 10 10 9 8 7 9 7 8 9 9 8 7 8 6 4 5 4 4 5 6 5 6 6 5 4 4 4 5 6 3 3 3 2 2
8 6 5 5 6 1 3 5 8 9 8 9 9 9 8 10 9 8 9 8 9 8 8 8 7 8 8 7 6 5 5 4 4 4 4 7 6 6 5 3 4 5 4 5 4 3 3 4 3
2 3 5 5 7 1 5 1 8 5 6 7 9 9 8 7 7 7 8 8 8 8 8 7 8 7 7 6 4 5 6 4 4 4 4 5 6 6 5 4 4 6 5 4 4 4 4 3 4
8 4 3 6 8 6 5 5 6 3 2 7 8 7 8 8 9 7 8 7 9 8 8 8 7 8 8 5 4 3 3 3 2 3 4 4 3 3 4 4 5 4 4 4 3 4 4 4 4
5 2 2 2 9 6 5 5 2 6 4 5 6 7 8 9 8 9 9 8 8 7 7 7 7 8 4 3 3 3 4 3 3 4 5 4 2 3 4 4 4 5 5 5 5 4 5 2 1
7 6 4 6 6 7 10 9 9 5 6 7 6 5 5 4 5 5 5 6 7 8 7 6 6 6 5 3 3 3 4 4 4 4 5 4 2 3 4 5 5 5 4 5 4 4 2 2 3
9 9 6 1 6 7 8 9 5 8 6 5 7 6 5 7 7 6 8 9 8 7 6 7 7 6 5 7 3 2 1 2 2 1 2 3 3 3 4 5 4 5 3 3 4 4 5 3 1
11 13 9 6 6 3 5 6 7 6 12 9 8 5 8 8 6 5 5 4 2 3 1 2 2 4 5 5 4 5 4 4 3 4 4 4 4 4 3 2 1 2 2 3 3 3 2 3 4
4 10 12 6 4 7 5 1 6 8 5 6 9 8 6 5 6 7 7 7 6 6 4 5 4 4 4 4 4 4 4 3 3 3 7 5 3 2 2 1 1 2 2 3 4 3 3 2 2
9 10 12 7 3 3 8 6 5 5 5 5 3 6 6 6 7 7 6 4 5 5 6 6 7 6 5 4 4 5 5 6 2 3 4 3 3 3 4 4 3 4 4 3 3 3 4 3 2
14 10 4 2 1 5 1 7 9 9 5 2 5 6 6 7 5 4 5 5 6 6 5 4 4 6 5 3 2 4 6 6 5 4 4 5 4 4 5 5 5 4 5 5 5 5 5 4 4
8 9 4 5 5 4 4 6 5 3 4 5 7 5 3 3 5 5 6 4 4 4 3 4 4 4 6 3 3 4 5 3 4 5 5 5 5 5 6 6 6 6 6 5 5 3 3 4 4
4 4 3 6 1 3 5 5 6 7 4 2 5 6 1 7 5 5 6 5 4 4 4 3 5 4 6 2 3 6 5 5 6 7 6 5 6 5 7 7 6 6 6 6 6 4 4 4 3
3 6 5 3 3 3 3 3 5 1 1 4 8 9 8 6 7 6 5 4 4 3 3 2 2 4 5 5 5 5 6 7 6 5 6 5 5 6 7 6 6 6 6 6 6 5 5 5 3
4 4 3 5 4 4 1 1 3 6 8 9 8 7 7 7 6 6 4 2 2 3 3 3 5 6 6 6 6 6 6 6 6 6 6 5 4 6 6 6 6 7 7 6 6 6 6 6 6
6 5 4 4 4 4 4 3 4 7 8 8 6 6 5 4 4 1 4 5 5 4 4 5 6 7 7 7 7 7 7 7 7 7 7 6 7 6 7 7 7 7 7 7 7 7 6 7 7
Wind_Direction
295 186 240 228 253 215 224 107 99 96 96 6 64 36 84 44 25 115 155 119 130 130 131 141 138 133 127 122 115 119 111 108 100 91 82 81 76 67 73 72 70 70 73 74 78 75 77 86 82
302 221 264 270 250 270 143 115 122 108 90 83 74 105 59 88 76 127 109 127 128 123 149 140 145 137 131 126 115 112 111 110 101 93 87 91 86 81 73 76 80 77 78 68 74 80 78 81 82
257 248 268 220 224 313 305 132 123 89 110 132 94 20 39 79 118 138 127 138 124 136 134 126 140 142 136 132 127 122 118 114 110 106 104 96 95 83 76 70 87 76 67 66 61 88 83 79 77
285 198 262 250 267 98 90 120 101 113 98 84 116 88 77 63 157 115 142 135 124 129 110 126 133 141 142 146 141 133 131 129 122 120 113 111 108 90 82 75 94 84 81 76 74 67 89 83 76
242 256 249 239 266 92 57 99 118 153 149 160 246 107 107 78 99 132 141 134 127 111 118 130 132 134 143 149 160 142 141 141 133 128 124 118 119 111 97 99 90 95 89 82 74 76 80 82 73
272 250 241 241 237 89 87 114 146 161 155 116 106 98 123 126 131 148 146 134 136 119 135 135 132 135 142 138 153 149 154 157 155 146 142 135 130 130 120 106 102 90 86 82 80 82 90 89 67
257 276 250 254 218 118 124 143 162 128 123 156 113 131 121 157 145 152 156 133 126 128 131 140 146 139 134 140 146 149 146 168 172 162 159 149 146 143 142 138 133 119 117 117 106 96 93 85 64
316 266 266 264 213 160 134 158 142 144 79 99 147 160 162 156 146 159 144 134 127 135 141 151 147 155 153 147 152 146 130 121 105 120 129 152 167 178 176 184 194 178 172 162 154 178 236 252 231
350 275 229 247 264 127 136 154 297 53 117 119 57 8 140 138 147 157 136 145 137 147 160 154 150 170 163 156 160 149 145 143 139 149 163 175 220 192 194 197 183 191 202 223 232 236 252 263 261
214 221 258 276 301 149 157 144 157 143 136 112 89 50 120 137 153 156 152 163 145 157 162 160 154 162 160 172 148 178 176 184 194 194 177 205 216 164 189 177 177 195 227 246 248 243 241 250 254
231 269 348 14 1 358 157 151 139 167 170 164 156 150 139 149 166 162 167 168 163 156 162 160 161 172 154 177 168 174 172 188 191 202 199 206 207 195 198 162 185 202 218 234 229 236 233 235 226
267 346 324 351 337 329 162 140 161 206 123 175 147 156 151 161 173 170 178 169 165 162 165 189 174 166 165 178 168 184 174 188 187 189 180 189 192 198 195 196 194 198 181 227 187 203 206 245 333
308 36 121 313 288 300 119 144 161 135 68 64 125 144 162 166 177 174 163 183 160 176 158 172 166 169 164 180 177 194 178 167 201 182 177 184 206 203 212 231 177 185 202 211 219 216 227 239 254
315 302 158 189 78 13 137 118 315 124 128 114 130 156 167 173 179 179 174 177 165 189 163 163 186 178 176 176 205 191 185 178 193 207 191 188 206 213 210 206 182 203 244 257 245 196 191 208 212
318 297 187 154 175 164 256 97 232 135 130 144 154 162 169 181 179 176 179 169 166 173 174 177 175 183 186 184 199 206 189 194 189 195 206 208 196 217 238 205 192 211 225 221 267 307 314 301 236
341 300 174 143 195 238 242 195 205 140 152 158 175 166 170 180 183 182 179 181 173 173 185 180 176 181 197 189 192 196 206 194 198 206 199 201 213 221 226 239 205 220 213 211 197 209 237 242 227
53 290 136 113 9 99 215 341 100 126 160 195 174 169 173 181 183 189 177 179 191 182 180 190 181 184 200 206 200 203 204 206 205 209 204 208 212 218 219 225 236 216 230 215 192 208 199 229 242
180 192 320 60 354 320 188 136 109 122 211 233 184 180 169 186 190 197 188 195 185 186 184 187 185 177 196 206 207 215 199 204 201 223 208 216 224 244 243 247 244 245 250 243 218 203 227 208 229
128 124 325 36 14 339 334 310 156 165 179 271 272 185 186 186 195 187 192 195 193 190 198 196 188 194 169 179 178 204 210 199 208 211 213 197 224 250 253 250 251 231 235 216 219 213 220 257 125
167 177 222 309 16 3 4 328 310 221 187 194 235 248 233 221 198 218 203 190 192 197 206 203 216 198 186 176 198 184 189 210 197 193 173 161 224 244 263 249 239 244 247 231 208 163 174 227 158
220 175 152 307 352 353 334 291 274 265 253 182 229 259 290 246 227 221 205 203 194 208 206 199 216 223 211 198 189 208 69 33 107 157 152 169 197 234 251 265 266 263 239 199 167 179 178 189 197
184 212 148 155 153 202 152 270 267 237 220 195 203 226 245 260 277 265 329 40 160 235 118 200 216 226 232 212 202 201 187 202 211 178 181 161 177 225 230 267 277 115 79 100 117 113 164 131 195
170 123 165 181 46 8 198 330 256 264 280 186 200 216 258 3 52 36 19 6 10 36 48 5 306 255 259 239 205 217 239 236 241 113 132 142 163 203 186 192 161 102 75 102 143 152 197 156 174
116 81 65 64 86 225 214 200 255 216 231 225 133 100 74 47 23 10 22 41 333 348 10 358 342 319 294 256 234 234 258 254 238 134 149 161 173 203 189 195 183 149 140 158 170 163 162 169 170
129 135 108 125 170 225 339 216 245 298 330 350 91 89 57 37 29 21 347 352 359 8 10 344 324 304 295 244 237 269 259 287 267 186 174 175 188 196 200 188 181 166 160 158 164 168 173 176 174
173 161 152 178 184 182 346 238 261 279 31 61 74 63 32 340 57 40 39 25 7 360 358 328 303 281 301 185 219 256 254 236 253 201 186 195 193 193 184 187 181 165 161 172 169 155 165 160 159
177 208 94 92 19 68 205 259 277 234 254 143 86 77 45 99 57 46 40 43 24 1 344 324 313 295 300 275 266 260 246 241 236 227 199 190 186 175 171 177 173 177 175 172 169 169 168 153 159
176 133 68 356 134 230 245 233 237 307 153 126 82 65 54 59 51 51 46 28 14 345 321 304 281 277 250 233 233 239 240 244 249 244 220 203 180 167 173 182 181 180 178 174 168 170 173 160 162
181 165 191 136 140 170 136 253 337 72 80 88 75 57 40 28 42 48 33 344 265 251 265 264 246 234 241 235 236 237 246 235 236 231 222 212 189 181 183 185 185 183 182 183 179 179 176 172 168
218 162 174 130 226 243 126 273 63 83 85 93 65 51 51 40 357 325 283 288 288 283 262 257 253 246 238 226 227 233 237 234 232 227 220 203 199 189 188 190 194 190 189 185 183 180 174 177 173